Wind_Speed
6 6 6 7 7 7 7 8 8 8 8 9 9 10 10 10 11 12 13 7 4 5 3 3 3 5 5 4 5 3 3 3 5 3 5 2 3 5 5 7 11 13 20 13 9
8 7 7 7 7 7 8 7 7 8 8 8 9 10 11 12 14 17 12 10 7 7 5 5 5 5 3 3 5 4 3 8 6 2 4 4 8 8 5 10 11 20 24 25 21
10 10 10 9 9 9 9 9 9 10 10 9 9 10 12 13 17 2 1 6 14 9 8 6 6 5 4 5 7 6 6 6 9 11 9 5 5 9 7 8 19 24 28 30 30
13 12 12 12 12 11 11 11 11 11 11 11 11 11 12 12 5 1 11 8 8 14 12 9 8 5 4 5 10 4 15 17 14 21 6 5 7 6 19 36 29 24 20 24 30
16 16 15 15 14 14 14 13 13 13 13 13 12 12 13 9 17 19 13 9 8 15 17 15 14 9 5 5 4 7 7 17 23 21 19 15 19 12 26 42 31 29 30 31 30
16 17 17 17 17 17 17 17 16 16 16 15 15 14 14 10 14 11 10 12 12 15 20 20 12 15 8 7 7 4 10 15 18 27 23 9 14 8 39 36 30 26 36 39 39
16 15 16 16 17 19 19 19 20 20 20 18 17 17 19 28 21 22 22 20 18 18 21 23 22 13 3 4 9 5 8 8 15 15 9 10 9 11 40 32 35 32 31 31 35
14 15 15 16 18 19 19 18 20 21 22 21 19 17 16 21 22 23 24 24 21 20 21 20 18 15 13 8 4 2 1 5 2 8 5 12 14 13 25 27 32 32 34 35 37
14 15 16 17 17 18 19 18 20 20 19 18 16 13 11 18 19 21 23 23 18 20 19 16 12 9 5 3 4 2 6 8 12 14 5 7 11 11 13 21 27 33 36 40 41
14 15 15 15 16 18 18 17 17 19 17 10 12 5 18 16 16 16 18 20 14 11 9 9 9 3 2 4 9 8 6 6 8 4 5 7 16 15 32 18 28 36 38 42 42
15 15 14 14 15 16 17 11 6 4 6 9 8 10 8 9 15 15 16 17 12 8 6 6 4 9 22 14 13 3 6 8 7 10 6 10 17 19 32 25 24 35 41 46 54
15 15 14 14 14 13 14 6 6 5 11 17 26 28 28 26 12 19 18 13 10 8 6 2 10 18 11 5 10 12 18 19 15 15 6 16 23 18 12 23 35 33 41 47 51
16 16 15 14 11 14 11 11 9 8 5 13 24 17 26 26 17 17 17 11 5 6 10 20 11 14 10 7 6 15 15 18 19 6 5 9 19 10 13 23 36 39 47 50 56
18 17 17 14 7 11 7 14 10 8 2 7 4 4 7 8 6 15 19 13 5 12 8 10 12 11 10 8 15 24 13 14 8 4 12 4 23 6 8 13 11 25 38 42 50
21 20 18 16 12 8 8 10 5 4 6 4 2 3 4 5 2 3 13 3 4 4 5 9 5 7 10 22 11 21 5 6 2 4 5 3 6 4 8 7 12 15 32 41 44
22 19 19 20 15 12 7 7 2 4 8 6 1 3 2 2 2 2 3 6 0 3 5 10 1 5 9 4 9 2 4 5 4 1 11 10 9 6 6 7 6 11 32 32 31
19 19 19 17 15 9 6 4 2 6 3 4 0 2 3 3 2 4 4 5 6 3 4 3 6 3 6 4 2 4 5 3 3 1 11 9 6 19 6 11 11 14 30 35 40
18 21 22 18 14 11 8 2 10 1 6 3 1 4 5 5 5 3 4 3 6 2 2 2 17 9 6 10 9 11 12 7 7 9 19 4 10 12 11 15 26 28 34 38 40
17 15 20 23 19 15 9 6 8 8 6 3 6 4 3 3 6 4 7 6 7 14 9 5 16 3 4 3 8 2 5 13 2 2 1 10 14 10 4 9 6 15 28 32 30
15 16 21 15 16 20 5 13 7 6 3 1 6 6 7 4 1 3 4 4 4 10 4 3 7 4 1 2 3 7 3 2 2 5 8 10 9 15 9 6 7 13 19 36 24
14 8 10 13 18 15 10 8 9 13 11 6 6 11 8 5 9 8 7 4 4 3 6 3 5 10 2 7 8 2 5 5 3 4 12 16 15 6 8 1 6 10 24 31 22
10 4 10 20 9 6 13 6 6 7 15 11 6 10 15 13 12 11 8 11 7 2 5 6 5 6 17 11 5 6 15 16 9 10 5 4 10 29 28 20 20 22 28 28 20
6 11 11 25 7 11 5 8 17 11 10 7 9 9 10 12 11 14 15 22 29 16 6 4 4 11 6 11 14 8 10 9 7 3 19 16 14 24 24 22 29 22 32 32 35
3 3 10 21 22 11 15 16 14 16 13 13 12 17 15 18 18 15 20 5 13 23 29 15 14 18 19 17 3 6 9 9 14 14 17 18 24 24 26 28 29 25 30 32 37
6 5 5 5 14 14 15 12 19 19 13 18 13 18 21 17 21 23 15 14 17 24 15 9 22 18 27 26 24 28 29 30 28 30 29 31 29 21 24 28 24 43 43 36 30
3 3 6 6 8 5 14 19 19 20 16 17 14 16 14 12 11 16 8 5 4 6 7 6 12 23 30 29 26 27 33 34 34 33 35 29 30 28 30 42 37 44 44 42 28
6 11 5 7 3 1 6 6 6 2 2 7 4 2 8 6 12 17 16 17 16 11 17 9 9 14 18 8 22 18 24 35 35 29 26 27 26 18 17 21 25 27 29 30 31
Wind_Direction
320 325 327 330 334 338 343 345 349 355 357 357 353 349 337 321 307 285 275 262 259 237 232 204 186 196 212 222 201 201 68 242 247 228 266 207 240 229 244 235 212 217 240 250 252
310 311 311 312 314 316 316 318 322 328 333 336 336 336 334 326 312 289 271 247 239 246 240 217 186 195 216 230 204 162 147 227 220 226 234 249 231 252 226 239 236 239 245 248 250
305 308 307 305 305 304 304 306 308 312 315 317 318 320 321 324 318 301 35 249 230 237 238 229 224 222 242 211 204 193 213 224 265 264 291 249 237 238 220 254 234 243 261 253 248
298 301 304 304 302 298 296 297 299 301 303 305 307 307 308 309 298 287 305 304 248 228 228 224 211 205 220 213 222 223 240 241 265 277 280 254 266 234 229 257 267 272 272 262 257
294 296 296 296 296 294 293 291 290 290 292 294 297 300 300 279 267 292 288 282 253 233 230 224 212 215 209 223 266 222 250 253 260 264 271 280 256 252 267 274 268 265 260 256 257
291 292 293 293 292 291 293 293 291 289 289 291 292 292 285 250 277 276 275 273 257 245 234 224 224 231 264 236 211 270 276 277 276 272 272 229 268 235 270 283 281 268 258 255 255
291 294 295 294 293 292 290 289 288 287 288 289 289 289 276 266 276 275 271 267 255 249 238 234 229 216 216 277 258 291 310 309 260 260 236 229 286 223 261 268 276 272 268 262 257
295 295 295 295 296 295 292 291 286 285 283 281 280 278 262 278 272 257 252 251 247 240 239 239 231 240 251 270 323 310 354 303 310 146 237 162 263 251 267 259 266 270 274 269 260
317 312 310 308 305 299 296 294 289 288 284 275 266 247 259 263 263 264 255 256 257 241 235 237 218 224 236 149 353 265 236 217 303 208 156 183 252 265 269 239 257 273 276 275 269
333 331 326 325 317 308 306 300 292 285 275 261 233 219 239 252 258 261 248 239 242 230 221 198 192 162 7 126 230 220 220 246 240 246 192 229 250 269 276 255 257 269 271 271 269
329 332 334 335 333 324 314 316 292 275 238 226 215 214 248 281 257 253 242 222 212 187 186 198 145 198 226 209 236 206 225 234 251 267 234 233 246 251 266 274 261 267 269 267 265
318 323 330 335 342 346 344 7 346 300 302 256 255 245 250 251 251 236 226 191 177 199 140 231 212 220 229 209 225 240 255 261 269 257 216 267 262 263 256 262 264 262 266 268 271
308 312 319 327 339 356 6 6 346 330 259 274 247 250 249 248 239 247 219 203 177 174 202 232 231 218 222 232 220 232 235 252 255 315 247 291 276 259 253 253 262 259 261 267 268
300 304 308 320 321 350 354 349 340 332 335 272 257 239 217 174 239 221 203 213 192 222 208 245 237 210 205 228 206 260 222 254 260 300 277 129 292 235 251 247 252 257 263 263 270
293 288 295 300 302 316 339 351 357 349 305 267 232 283 189 185 116 22 193 225 217 181 149 243 190 202 212 229 183 253 194 249 226 227 325 200 267 197 213 252 248 252 255 266 276
278 278 283 289 286 296 317 360 7 40 252 305 346 10 9 357 13 101 128 167 211 262 230 246 217 201 214 178 190 139 97 53 58 101 266 193 207 308 176 216 268 258 258 263 273
270 270 272 274 274 282 297 334 24 212 312 248 315 177 208 239 247 171 149 166 190 287 252 295 225 205 177 238 149 150 109 292 308 71 250 186 208 249 252 243 223 248 253 269 272
270 259 249 249 252 261 260 76 227 171 228 0 169 148 205 156 254 173 117 243 238 190 287 245 292 167 172 197 200 215 194 197 207 252 272 115 245 267 226 244 251 267 273 282 282
274 267 245 246 250 241 191 218 232 187 210 247 335 291 223 194 196 194 205 216 226 190 205 197 268 129 211 179 153 189 188 236 338 46 354 263 269 284 247 282 301 300 317 297 280
266 269 255 263 239 211 200 233 227 215 355 30 250 215 226 182 282 180 232 203 231 199 184 255 282 261 72 29 286 192 177 74 213 200 247 273 267 270 297 277 313 358 333 329 308
259 256 243 220 205 190 225 225 230 219 213 202 229 260 245 231 226 225 211 287 236 197 170 168 159 282 106 191 211 189 245 231 200 184 253 258 266 221 219 23 320 310 317 333 315
227 234 216 194 175 214 232 224 224 199 219 240 247 247 258 269 253 231 213 224 218 189 232 206 159 229 267 284 265 215 261 240 238 239 215 231 266 286 272 281 290 282 286 298 291
223 231 226 203 221 222 226 245 228 243 227 205 234 230 228 252 269 241 255 266 268 247 237 183 251 275 262 281 237 215 225 235 258 273 239 242 258 257 270 272 271 271 271 267 253
234 246 198 213 232 242 238 239 238 243 246 234 253 255 263 262 260 268 270 243 256 254 257 255 247 241 252 246 255 225 225 232 236 249 256 241 251 261 270 270 272 274 280 276 264
224 239 235 215 232 243 251 265 266 262 254 265 262 253 258 265 275 266 277 309 289 280 265 233 251 240 248 253 254 257 260 258 252 256 253 257 258 257 261 271 284 292 290 283 273
251 277 315 292 299 251 227 239 249 261 261 258 271 272 286 281 297 293 277 241 265 316 336 325 280 273 260 251 240 238 248 256 262 261 259 262 266 267 274 280 279 278 281 290 323
246 273 285 271 310 97 241 251 265 13 334 298 324 352 261 290 319 302 279 256 249 265 285 269 284 292 280 310 308 281 262 252 254 261 261 264 270 3 353 332 313 325 32 5 0
Height
1563 1562 1561 1560 1559 1558 1556 1555 1554 1553 1552 1550 1549 1548 1546 1545 1543 1542 1541 1542 1541 1541 1541 1542 1542 1542 1543 1542 1542 1542 1550 1554 1542 1533 1528 1524 1524 1521 1520 1519 1517 1516 1513 1513 1513
1562 1561 1560 1559 1558 1557 1556 1554 1553 1552 1551 1549 1548 1546 1544 1543 1541 1538 1539 1538 1539 1540 1540 1541 1541 1541 1541 1541 1541 1542 1552 1541 1527 1524 1524 1522 1521 1519 1519 1515 1513 1513 1511 1510 1511
1560 1560 1559 1557 1556 1555 1554 1553 1552 1551 1550 1548 1547 1545 1543 1541 1538 1534 1535 1535 1536 1538 1538 1540 1540 1540 1540 1539 1538 1537 1540 1529 1523 1522 1521 1520 1518 1516 1514 1511 1506 1506 1506 1506 1506
1558 1557 1556 1556 1554 1553 1552 1551 1550 1549 1548 1546 1545 1544 1542 1541 1544 1534 1535 1535 1535 1535 1536 1537 1538 1538 1537 1536 1532 1535 1526 1525 1520 1519 1518 1517 1514 1511 1508 1497 1501 1502 1502 1501 1499
1555 1554 1553 1552 1551 1550 1549 1548 1547 1546 1545 1543 1542 1541 1540 1538 1533 1533 1532 1532 1532 1533 1533 1534 1534 1534 1533 1530 1530 1527 1521 1520 1517 1517 1515 1515 1509 1508 1498 1492 1497 1496 1494 1493 1493
1552 1551 1550 1548 1547 1546 1546 1545 1544 1542 1541 1540 1539 1538 1538 1535 1529 1529 1528 1528 1529 1529 1529 1530 1529 1530 1529 1527 1527 1521 1519 1516 1511 1510 1512 1511 1502 1506 1487 1491 1488 1488 1485 1485 1485
1548 1547 1546 1545 1543 1542 1541 1540 1539 1537 1537 1536 1535 1535 1533 1526 1526 1525 1525 1524 1523 1523 1524 1525 1526 1527 1526 1524 1521 1520 1521 1513 1501 1502 1505 1504 1504 1497 1481 1486 1483 1480 1479 1480 1477
1544 1543 1542 1541 1539 1537 1536 1535 1533 1532 1531 1530 1530 1530 1525 1521 1521 1520 1520 1518 1518 1519 1521 1523 1524 1526 1525 1523 1521 1522 1522 1525 1497 1499 1499 1502 1500 1477 1480 1482 1477 1475 1473 1472 1470
1541 1540 1538 1537 1535 1533 1531 1530 1528 1526 1525 1524 1525 1525 1520 1515 1513 1514 1515 1515 1516 1516 1517 1519 1523 1523 1523 1524 1530 1526 1529 1526 1509 1494 1496 1499 1493 1471 1474 1475 1472 1469 1468 1465 1462
1538 1537 1535 1533 1531 1529 1527 1524 1522 1520 1519 1519 1519 1524 1514 1509 1508 1509 1510 1511 1513 1514 1517 1518 1520 1523 1526 1528 1534 1524 1528 1519 1512 1495 1495 1497 1488 1474 1470 1470 1466 1463 1461 1457 1454
1537 1535 1533 1531 1528 1525 1523 1521 1521 1519 1515 1511 1509 1505 1504 1504 1505 1505 1506 1508 1510 1513 1516 1516 1522 1524 1509 1512 1503 1511 1515 1512 1500 1490 1492 1489 1481 1474 1466 1464 1460 1456 1450 1446 1443
1534 1532 1531 1529 1526 1524 1521 1519 1520 1522 1513 1505 1502 1500 1499 1500 1499 1499 1501 1505 1506 1510 1511 1515 1515 1502 1500 1504 1509 1510 1508 1504 1490 1487 1492 1483 1470 1465 1463 1455 1449 1447 1440 1435 1430
1531 1530 1529 1528 1525 1524 1522 1522 1520 1518 1516 1499 1491 1490 1491 1492 1492 1493 1498 1499 1502 1507 1506 1499 1495 1498 1503 1503 1507 1500 1506 1494 1492 1489 1485 1483 1464 1464 1452 1446 1439 1434 1430 1426 1418
1529 1528 1527 1527 1528 1523 1523 1521 1519 1518 1517 1501 1488 1486 1486 1487 1488 1484 1489 1494 1497 1497 1501 1498 1490 1491 1498 1500 1498 1485 1489 1490 1493 1496 1492 1481 1444 1452 1446 1438 1431 1425 1420 1416 1410
1524 1525 1524 1523 1523 1525 1524 1519 1517 1519 1533 1491 1488 1486 1487 1487 1488 1487 1485 1492 1493 1492 1495 1484 1482 1487 1490 1480 1489 1475 1485 1488 1488 1494 1493 1489 1492 1431 1435 1437 1425 1415 1413 1410 1404
1520 1521 1519 1520 1520 1524 1522 1518 1519 1525 1527 1492 1486 1487 1489 1485 1487 1488 1487 1490 1495 1494 1490 1483 1478 1479 1475 1474 1477 1479 1478 1489 1499 1499 1486 1479 1483 1406 1439 1428 1421 1412 1405 1400 1397
1513 1515 1513 1516 1516 1519 1521 1521 1523 1520 1494 1487 1486 1487 1490 1486 1486 1487 1488 1491 1492 1495 1492 1480 1475 1466 1471 1478 1476 1479 1485 1505 1509 1520 1484 1458 1475 1424 1421 1414 1412 1405 1397 1394 1392
1508 1508 1507 1509 1512 1516 1520 1522 1516 1496 1493 1481 1484 1483 1486 1484 1485 1487 1489 1490 1486 1487 1488 1487 1469 1467 1463 1469 1469 1474 1474 1482 1499 1482 1448 1475 1454 1422 1411 1404 1400 1400 1397 1391 1388
1502 1503 1500 1504 1506 1511 1515 1513 1493 1489 1483 1482 1481 1482 1482 1478 1481 1486 1488 1483 1477 1476 1481 1481 1467 1461 1462 1459 1463 1469 1477 1457 1473 1505 1492 1433 1419 1407 1407 1405 1399 1400 1397 1383 1375
1496 1497 1492 1500 1501 1505 1505 1492 1489 1485 1483 1482 1488 1482 1484 1477 1478 1481 1483 1470 1469 1467 1465 1464 1468 1453 1458 1462 1459 1461 1460 1471 1474 1473 1475 1446 1426 1409 1408 1403 1401 1393 1394 1385 1378
1494 1492 1485 1491 1494 1498 1490 1482 1480 1479 1482 1483 1480 1479 1481 1478 1474 1474 1471 1469 1465 1464 1464 1463 1467 1459 1458 1459 1456 1463 1461 1456 1453 1454 1435 1436 1422 1407 1403 1399 1400 1394 1391 1387 1386
1489 1488 1482 1483 1487 1486 1480 1478 1475 1472 1475 1475 1475 1474 1473 1471 1467 1464 1462 1466 1461 1464 1465 1460 1462 1469 1457 1453 1448 1449 1446 1438 1439 1439 1444 1438 1423 1394 1394 1392 1393 1391 1389 1390 1389
1481 1480 1482 1480 1473 1469 1470 1471 1470 1471 1470 1470 1467 1468 1468 1465 1465 1454 1454 1458 1457 1457 1457 1452 1460 1451 1455 1448 1441 1440 1432 1430 1424 1426 1416 1425 1415 1391 1388 1385 1380 1385 1382 1385 1386
1480 1478 1475 1472 1467 1466 1464 1462 1462 1462 1459 1464 1464 1462 1465 1463 1458 1451 1446 1450 1452 1452 1451 1450 1446 1441 1430 1422 1423 1425 1423 1423 1419 1418 1408 1403 1393 1387 1379 1373 1365 1379 1377 1380 1381
1477 1472 1464 1463 1461 1466 1464 1461 1459 1456 1455 1457 1456 1458 1458 1454 1452 1446 1447 1451 1449 1449 1447 1447 1437 1436 1422 1417 1418 1414 1414 1411 1404 1395 1395 1384 1381 1383 1374 1364 1364 1368 1370 1374 1374
1472 1470 1467 1461 1458 1459 1457 1454 1456 1450 1453 1450 1450 1453 1457 1455 1458 1452 1456 1458 1456 1448 1452 1449 1432 1425 1410 1410 1410 1409 1402 1397 1391 1385 1381 1381 1380 1372 1371 1369 1366 1364 1366 1367 1373
1469 1469 1467 1460 1460 1455 1452 1452 1450 1451 1449 1451 1452 1455 1454 1457 1457 1457 1456 1455 1454 1454 1444 1446 1440 1428 1410 1417 1416 1406 1396 1390 1380 1381 1380 1379 1371 1385 1384 1382 1375 1370 1377 1381 1378